Time,TemperatureF,DewpointF,PressureIn,WindDirection,WindDirectionDegrees,WindSpeedMPH,WindSpeedGustMPH,Humidity,HourlyPrecipIn,Conditions,Clouds,dailyrainin,SoftwareType,DateUTC
2013-03-07 00:02:00,-999.0,-99.9,29.88,NNW,332,17.0,32.0,-999,-99.99,,,-99.99,,2013-03-07 05:02:00,
2013-03-07 00:12:00,-999.0,-99.9,29.88,NNW,332,18.0,24.0,-999,-99.99,,,-99.99,,2013-03-07 05:12:00,
2013-03-07 00:23:00,-999.0,-99.9,29.89,NNW,330,17.0,26.0,-999,-99.99,,,-99.99,,2013-03-07 05:23:00,
2013-03-07 00:32:00,43.0,-99.9,29.89,North,-999,-999.0,-999.0,-999,-99.99,,,-99.99,,2013-03-07 05:32:00,
2013-03-07 00:42:00,42.0,-99.9,29.89,NNW,336,19.0,28.0,-999,-99.99,,,-99.99,,2013-03-07 05:42:00,
2013-03-07 00:53:00,42.0,-99.9,29.90,North,-999,-999.0,-999.0,-999,-99.99,,,-99.99,,2013-03-07 05:53:00,
2013-03-07 01:02:00,43.0,-99.9,29.90,North,-999,-999.0,-999.0,-999,-99.99,,,-99.99,,2013-03-07 06:02:00,
2013-03-07 01:11:00,42.0,-99.9,29.90,NNW,334,16.0,29.0,-999,-99.99,,,-99.99,,2013-03-07 06:11:00,
2013-03-07 01:22:00,43.0,-99.9,29.90,North,-999,-999.0,-999.0,-999,-99.99,,,-99.99,,2013-03-07 06:22:00,
2013-03-07 01:32:00,42.0,-99.9,29.91,North,-999,-999.0,-999.0,-999,-99.99,,,-99.99,,2013-03-07 06:32:00,
2013-03-07 01:42:00,-999.0,-99.9,29.91,NNW,336,16.0,24.0,-999,-99.99,,,-99.99,,2013-03-07 06:42:00,
2013-03-07 01:52:00,42.0,-99.9,29.91,NNW,340,15.0,28.0,-999,-99.99,,,-99.99,,2013-03-07 06:52:00,
2013-03-07 02:02:00,-999.0,-99.9,29.92,NNW,328,16.0,26.0,-999,-99.99,,,-99.99,,2013-03-07 07:02:00,
2013-03-07 02:11:00,-999.0,-99.9,29.92,NNW,335,15.0,28.0,-999,-99.99,,,-99.99,,2013-03-07 07:11:00,
2013-03-07 02:22:00,-999.0,-99.9,29.93,NNW,338,17.0,26.0,-999,-99.99,,,-99.99,,2013-03-07 07:22:00,
2013-03-07 02:32:00,42.0,-99.9,29.93,North,-999,-999.0,-999.0,-999,-99.99,,,-99.99,,2013-03-07 07:32:00,
2013-03-07 02:43:00,-999.0,-99.9,29.93,NNW,334,12.0,26.0,-999,-99.99,,,-99.99,,2013-03-07 07:43:00,
2013-03-07 02:53:00,42.0,-99.9,29.94,North,-999,-999.0,-999.0,-999,-99.99,,,-99.99,,2013-03-07 07:53:00,
2013-03-07 03:12:00,42.0,-99.9,29.94,North,-999,-999.0,-999.0,-999,-99.99,,,-99.99,,2013-03-07 08:12:00,
2013-03-07 03:34:00,-999.0,-99.9,29.95,NNW,333,12.0,23.0,-999,-99.99,,,-99.99,,2013-03-07 08:34:00,
2013-03-07 03:45:00,42.0,-99.9,29.95,North,-999,-999.0,-999.0,-999,-99.99,,,-99.99,,2013-03-07 08:45:00,
2013-03-07 03:55:00,-999.0,-99.9,29.95,NNW,335,14.0,22.0,-999,-99.99,,,-99.99,,2013-03-07 08:55:00,
2013-03-07 04:03:00,42.0,-99.9,29.95,North,-999,-999.0,-999.0,-999,-99.99,,,-99.99,,2013-03-07 09:03:00,
2013-03-07 04:14:00,42.0,-99.9,29.96,NNW,335,15.0,27.0,-999,-99.99,,,-99.99,,2013-03-07 09:14:00,
2013-03-07 04:24:00,-999.0,-99.9,29.96,NNW,337,17.0,22.0,-999,-99.99,,,-99.99,,2013-03-07 09:24:00,
2013-03-07 04:33:00,-999.0,-99.9,29.97,NNW,335,15.0,23.0,-999,-99.99,,,-99.99,,2013-03-07 09:33:00,
2013-03-07 04:43:00,-999.0,-99.9,29.97,NNW,332,15.0,21.0,-999,-99.99,,,-99.99,,2013-03-07 09:43:00,
2013-03-07 04:54:00,42.0,-99.9,29.97,North,-999,-999.0,-999.0,-999,-99.99,,,-99.99,,2013-03-07 09:54:00,
2013-03-07 05:04:00,42.0,-99.9,29.98,North,-999,-999.0,-999.0,-999,-99.99,,,-99.99,,2013-03-07 10:04:00,
2013-03-07 05:14:00,-999.0,-99.9,29.98,NNW,335,14.0,23.0,-999,-99.99,,,-99.99,,2013-03-07 10:14:00,
2013-03-07 05:24:00,42.0,-99.9,29.98,North,-999,-999.0,-999.0,-999,-99.99,,,-99.99,,2013-03-07 10:24:00,
2013-03-07 05:33:00,-999.0,-99.9,29.98,NNW,338,15.0,22.0,-999,-99.99,,,-99.99,,2013-03-07 10:33:00,
2013-03-07 05:43:00,41.0,-99.9,29.99,North,-999,-999.0,-999.0,-999,-99.99,,,-99.99,,2013-03-07 10:43:00,
2013-03-07 05:54:00,41.0,-99.9,29.99,North,-999,-999.0,-999.0,-999,-99.99,,,-99.99,,2013-03-07 10:54:00,
2013-03-07 06:04:00,41.0,-99.9,30.00,North,-999,-999.0,-999.0,-999,-99.99,,,-99.99,,2013-03-07 11:04:00,
2013-03-07 06:12:00,41.0,-99.9,30.00,North,-999,-999.0,-999.0,-999,-99.99,,,-99.99,,2013-03-07 11:12:00,
2013-03-07 06:23:00,41.0,-99.9,30.00,North,-999,-999.0,-999.0,-999,-99.99,,,-99.99,,2013-03-07 11:23:00,
2013-03-07 06:34:00,-999.0,-99.9,30.01,NNW,338,13.0,22.0,-999,-99.99,,,-99.99,,2013-03-07 11:34:00,
2013-03-07 06:44:00,-999.0,-99.9,30.01,NNW,336,13.0,20.0,-999,-99.99,,,-99.99,,2013-03-07 11:44:00,
2013-03-07 06:55:00,41.0,-99.9,30.01,North,-999,-999.0,-999.0,-999,-99.99,,,-99.99,,2013-03-07 11:55:00,
2013-03-07 07:04:00,-999.0,-99.9,30.02,NNW,332,13.0,23.0,-999,-99.99,,,-99.99,,2013-03-07 12:04:00,
2013-03-07 07:23:00,-999.0,-99.9,30.04,NNW,334,14.0,22.0,-999,-99.99,,,-99.99,,2013-03-07 12:23:00,
2013-03-07 07:43:00,41.0,-99.9,30.05,NNW,331,13.0,20.0,-999,-99.99,,,-99.99,,2013-03-07 12:43:00,
2013-03-07 07:53:00,-999.0,-99.9,30.06,NNW,327,14.0,24.0,-999,-99.99,,,-99.99,,2013-03-07 12:53:00,
2013-03-07 08:03:00,42.0,-99.9,30.06,North,-999,-999.0,-999.0,-999,-99.99,,,-99.99,,2013-03-07 13:03:00,
2013-03-07 08:13:00,-999.0,-99.9,30.05,NNW,339,11.0,18.0,-999,-99.99,,,-99.99,,2013-03-07 13:13:00,
2013-03-07 08:23:00,42.0,-99.9,30.06,North,-999,-999.0,-999.0,-999,-99.99,,,-99.99,,2013-03-07 13:23:00,
2013-03-07 08:33:00,42.0,-99.9,30.07,North,-999,-999.0,-999.0,-999,-99.99,,,-99.99,,2013-03-07 13:33:00,
2013-03-07 08:43:00,43.0,-99.9,30.07,North,-999,-999.0,-999.0,-999,-99.99,,,-99.99,,2013-03-07 13:43:00,
2013-03-07 08:53:00,43.0,-99.9,30.07,North,-999,-999.0,-999.0,-999,-99.99,,,-99.99,,2013-03-07 13:53:00,
2013-03-07 09:02:00,43.0,-99.9,30.08,North,-999,-999.0,-999.0,-999,-99.99,,,-99.99,,2013-03-07 14:02:00,
2013-03-07 09:13:00,-999.0,-99.9,30.08,NNW,340,18.0,26.0,-999,-99.99,,,-99.99,,2013-03-07 14:13:00,
2013-03-07 09:23:00,44.0,-99.9,30.09,North,-999,-999.0,-999.0,-999,-99.99,,,-99.99,,2013-03-07 14:23:00,
2013-03-07 09:34:00,-999.0,-99.9,30.09,NNW,343,23.0,29.0,-999,-99.99,,,-99.99,,2013-03-07 14:34:00,
2013-03-07 09:43:00,-999.0,-99.9,30.09,NNW,343,21.0,28.0,-999,-99.99,,,-99.99,,2013-03-07 14:43:00,
2013-03-07 09:54:00,-999.0,-99.9,30.08,NNW,338,18.0,30.0,-999,-99.99,,,-99.99,,2013-03-07 14:54:00,
2013-03-07 10:03:00,-999.0,-99.9,30.08,NNW,336,17.0,25.0,-999,-99.99,,,-99.99,,2013-03-07 15:03:00,
2013-03-07 10:23:00,46.0,-99.9,30.08,North,-999,-999.0,-999.0,-999,-99.99,,,-99.99,,2013-03-07 15:23:00,
2013-03-07 10:33:00,-999.0,-99.9,30.08,NNW,343,16.0,23.0,-999,-99.99,,,-99.99,,2013-03-07 15:33:00,
2013-03-07 10:43:00,47.0,-99.9,30.08,NNW,338,17.0,23.0,-999,-99.99,,,-99.99,,2013-03-07 15:43:00,
2013-03-07 10:53:00,46.0,-99.9,30.09,NNW,344,16.0,26.0,-999,-99.99,,,-99.99,,2013-03-07 15:53:00,
2013-03-07 11:03:00,47.0,-99.9,30.09,NNW,339,17.0,23.0,-999,-99.99,,,-99.99,,2013-03-07 16:03:00,
2013-03-07 11:13:00,47.0,-99.9,30.09,NNW,344,17.0,24.0,-999,-99.99,,,-99.99,,2013-03-07 16:13:00,
2013-03-07 11:24:00,47.0,-99.9,30.09,NNW,344,16.0,22.0,-999,-99.99,,,-99.99,,2013-03-07 16:24:00,
2013-03-07 11:33:00,48.0,-99.9,30.08,NNW,341,12.0,23.0,-999,-99.99,,,-99.99,,2013-03-07 16:33:00,
2013-03-07 11:43:00,48.0,-99.9,30.08,North,349,13.0,22.0,-999,-99.99,,,-99.99,,2013-03-07 16:43:00,
2013-03-07 11:53:00,48.0,-99.9,30.08,NNW,347,18.0,21.0,-999,-99.99,,,-99.99,,2013-03-07 16:53:00,
2013-03-07 12:03:00,48.0,-99.9,30.07,NNW,348,15.0,22.0,-999,-99.99,,,-99.99,,2013-03-07 17:03:00,
2013-03-07 12:12:00,49.0,-99.9,30.07,NNW,339,12.0,24.0,-999,-99.99,,,-99.99,,2013-03-07 17:12:00,
2013-03-07 12:23:00,49.0,-99.9,30.07,North,349,12.0,21.0,-999,-99.99,,,-99.99,,2013-03-07 17:23:00,
2013-03-07 12:34:00,49.0,-99.9,30.07,North,350,14.0,21.0,-999,-99.99,,,-99.99,,2013-03-07 17:34:00,
2013-03-07 12:44:00,49.0,-99.9,30.07,North,351,17.0,23.0,-999,-99.99,,,-99.99,,2013-03-07 17:44:00,
2013-03-07 12:55:00,50.0,-99.9,30.07,NNW,327,13.0,21.0,-999,-99.99,,,-99.99,,2013-03-07 17:55:00,
2013-03-07 13:04:00,50.0,-99.9,30.07,NNW,340,16.0,23.0,-999,-99.99,,,-99.99,,2013-03-07 18:04:00,
2013-03-07 13:13:00,50.0,-99.9,30.06,NNW,340,17.0,23.0,-999,-99.99,,,-99.99,,2013-03-07 18:13:00,
2013-03-07 13:22:00,51.0,-99.9,30.06,NNW,327,13.0,20.0,-999,-99.99,,,-99.99,,2013-03-07 18:22:00,
2013-03-07 13:33:00,51.0,-99.9,30.06,NNW,329,12.0,17.0,-999,-99.99,,,-99.99,,2013-03-07 18:33:00,
2013-03-07 13:43:00,51.0,-99.9,30.06,NNW,333,15.0,22.0,-999,-99.99,,,-99.99,,2013-03-07 18:43:00,
2013-03-07 13:53:00,51.0,-99.9,30.05,NNW,335,9.0,16.0,-999,-99.99,,,-99.99,,2013-03-07 18:53:00,
2013-03-07 14:03:00,51.0,-99.9,30.05,NW,320,9.0,19.0,-999,-99.99,,,-99.99,,2013-03-07 19:03:00,
2013-03-07 14:12:00,51.0,-99.9,30.04,North,-999,-999.0,-999.0,-999,-99.99,,,-99.99,,2013-03-07 19:12:00,
2013-03-07 14:24:00,51.0,-99.9,30.04,North,-999,-999.0,-999.0,-999,-99.99,,,-99.99,,2013-03-07 19:24:00,
2013-03-07 14:35:00,51.0,-99.9,30.04,North,-999,-999.0,-999.0,-999,-99.99,,,-99.99,,2013-03-07 19:35:00,
2013-03-07 14:53:00,52.0,-99.9,30.04,North,-999,-999.0,-999.0,-999,-99.99,,,-99.99,,2013-03-07 19:53:00,
2013-03-07 15:02:00,-999.0,-99.9,30.04,NNW,340,16.0,21.0,-999,-99.99,,,-99.99,,2013-03-07 20:02:00,
2013-03-07 15:14:00,-999.0,-99.9,30.04,NNW,346,14.0,21.0,-999,-99.99,,,-99.99,,2013-03-07 20:14:00,
2013-03-07 15:23:00,-999.0,-99.9,30.04,NNW,336,13.0,19.0,-999,-99.99,,,-99.99,,2013-03-07 20:23:00,
2013-03-07 15:43:00,52.0,-99.9,30.04,North,-999,-999.0,-999.0,-999,-99.99,,,-99.99,,2013-03-07 20:43:00,
2013-03-07 15:54:00,52.0,-99.9,30.04,NNW,343,13.0,22.0,-999,-99.99,,,-99.99,,2013-03-07 20:54:00,
2013-03-07 16:03:00,53.0,-99.9,30.05,North,-999,-999.0,-999.0,-999,-99.99,,,-99.99,,2013-03-07 21:03:00,
2013-03-07 16:23:00,-999.0,-99.9,30.05,NNW,330,13.0,19.0,-999,-99.99,,,-99.99,,2013-03-07 21:23:00,
2013-03-07 16:33:00,52.0,-99.9,30.06,North,-999,-999.0,-999.0,-999,-99.99,,,-99.99,,2013-03-07 21:33:00,
2013-03-07 16:43:00,-999.0,-99.9,30.06,NNW,332,14.0,20.0,-999,-99.99,,,-99.99,,2013-03-07 21:43:00,
2013-03-07 16:53:00,52.0,-99.9,30.06,North,-999,-999.0,-999.0,-999,-99.99,,,-99.99,,2013-03-07 21:53:00,
2013-03-07 17:02:00,-999.0,-99.9,30.06,NW,325,12.0,18.0,-999,-99.99,,,-99.99,,2013-03-07 22:02:00,
2013-03-07 17:12:00,-999.0,-99.9,30.07,NNW,336,13.0,20.0,-999,-99.99,,,-99.99,,2013-03-07 22:12:00,
2013-03-07 17:23:00,51.0,-99.9,30.07,North,-999,-999.0,-999.0,-999,-99.99,,,-99.99,,2013-03-07 22:23:00,
2013-03-07 17:33:00,51.0,-99.9,30.08,North,-999,-999.0,-999.0,-999,-99.99,,,-99.99,,2013-03-07 22:33:00,
2013-03-07 17:55:00,50.0,-99.9,30.08,North,-999,-999.0,-999.0,-999,-99.99,,,-99.99,,2013-03-07 22:55:00,
2013-03-07 18:03:00,-999.0,-99.9,30.09,NW,326,12.0,19.0,-999,-99.99,,,-99.99,,2013-03-07 23:03:00,
2013-03-07 18:22:00,-999.0,-99.9,30.09,NNW,342,15.0,22.0,-999,-99.99,,,-99.99,,2013-03-07 23:22:00,
2013-03-07 18:35:00,49.0,-99.9,30.10,North,-999,-999.0,-999.0,-999,-99.99,,,-99.99,,2013-03-07 23:35:00,
2013-03-07 18:44:00,-999.0,-99.9,30.11,NNW,345,13.0,22.0,-999,-99.99,,,-99.99,,2013-03-07 23:44:00,
2013-03-07 18:54:00,48.0,-99.9,30.11,North,-999,-999.0,-999.0,-999,-99.99,,,-99.99,,2013-03-07 23:54:00,
2013-03-07 19:05:00,-999.0,-99.9,30.12,NNW,339,9.0,15.0,-999,-99.99,,,-99.99,,2013-03-08 00:05:00,
2013-03-07 19:13:00,-999.0,-99.9,30.12,NNW,342,9.0,17.0,-999,-99.99,,,-99.99,,2013-03-08 00:13:00,
2013-03-07 19:23:00,-999.0,-99.9,30.13,NNW,343,9.0,14.0,-999,-99.99,,,-99.99,,2013-03-08 00:23:00,
2013-03-07 19:35:00,47.0,-99.9,30.13,NNW,344,10.0,16.0,-999,-99.99,,,-99.99,,2013-03-08 00:35:00,
2013-03-07 19:54:00,47.0,-99.9,30.14,North,-999,-999.0,-999.0,-999,-99.99,,,-99.99,,2013-03-08 00:54:00,
2013-03-07 20:02:00,-999.0,-99.9,30.14,NNW,338,13.0,16.0,-999,-99.99,,,-99.99,,2013-03-08 01:02:00,
2013-03-07 20:12:00,47.0,-99.9,30.14,NNW,339,8.0,14.0,-999,-99.99,,,-99.99,,2013-03-08 01:12:00,
2013-03-07 20:22:00,-999.0,-99.9,30.14,NNW,334,7.0,12.0,-999,-99.99,,,-99.99,,2013-03-08 01:22:00,
2013-03-07 20:33:00,-999.0,-99.9,30.14,NNW,331,5.0,9.0,-999,-99.99,,,-99.99,,2013-03-08 01:33:00,
2013-03-07 20:52:00,-999.0,-99.9,30.14,NNW,336,9.0,11.0,-999,-99.99,,,-99.99,,2013-03-08 01:52:00,
2013-03-07 21:02:00,-999.0,-99.9,30.15,NNW,339,5.0,8.0,-999,-99.99,,,-99.99,,2013-03-08 02:02:00,
2013-03-07 21:12:00,-999.0,-99.9,30.15,NNW,332,6.0,12.0,-999,-99.99,,,-99.99,,2013-03-08 02:12:00,
2013-03-07 21:22:00,47.0,-99.9,30.15,North,-999,-999.0,-999.0,-999,-99.99,,,-99.99,,2013-03-08 02:22:00,
2013-03-07 21:32:00,-999.0,-99.9,30.15,NNW,345,7.0,11.0,-999,-99.99,,,-99.99,,2013-03-08 02:32:00,
2013-03-07 21:42:00,46.0,-99.9,30.15,North,-999,-999.0,-999.0,-999,-99.99,,,-99.99,,2013-03-08 02:42:00,
2013-03-07 21:53:00,-999.0,-99.9,30.15,North,350,10.0,13.0,-999,-99.99,,,-99.99,,2013-03-08 02:53:00,
2013-03-07 22:02:00,-999.0,-99.9,30.16,North,352,10.0,12.0,-999,-99.99,,,-99.99,,2013-03-08 03:02:00,
2013-03-07 22:12:00,46.0,-99.9,30.16,North,-999,-999.0,-999.0,-999,-99.99,,,-99.99,,2013-03-08 03:12:00,
2013-03-07 22:23:00,46.0,-99.9,30.16,North,-999,-999.0,-999.0,-999,-99.99,,,-99.99,,2013-03-08 03:23:00,
2013-03-07 22:33:00,-999.0,-99.9,30.16,NNW,347,11.0,17.0,-999,-99.99,,,-99.99,,2013-03-08 03:33:00,
2013-03-07 22:53:00,45.0,-99.9,30.15,North,-999,-999.0,-999.0,-999,-99.99,,,-99.99,,2013-03-08 03:53:00,
2013-03-07 23:02:00,-999.0,-99.9,30.16,NNW,345,8.0,13.0,-999,-99.99,,,-99.99,,2013-03-08 04:02:00,
2013-03-07 23:12:00,-999.0,-99.9,30.16,NNW,343,8.0,12.0,-999,-99.99,,,-99.99,,2013-03-08 04:12:00,
2013-03-07 23:22:00,44.0,-99.9,30.15,North,-999,-999.0,-999.0,-999,-99.99,,,-99.99,,2013-03-08 04:22:00,
2013-03-07 23:32:00,-999.0,-99.9,30.16,NNW,331,6.0,12.0,-999,-99.99,,,-99.99,,2013-03-08 04:32:00,
2013-03-07 23:42:00,-999.0,-99.9,30.15,NNW,328,7.0,11.0,-999,-99.99,,,-99.99,,2013-03-08 04:42:00,
2013-03-07 23:52:00,44.0,-99.9,30.15,North,-999,-999.0,-999.0,-999,-99.99,,,-99.99,,2013-03-08 04:52:00,